Retour au catalogue

PUNCH-WFI03

ActifScienceSSO
NORAD 63180·PAYLOAD·🇺🇸 United States

Lancé Mar 12, 2025 depuis Vandenberg Space Force Base

Loading…

Prochains Passages (prochaines 24 heures)

TLE

FraisSource: Space-Track

Époque: Sep 14, 2026, 10:58 UTC

1 63180U 25047C   26257.45723740  .00000364  00000-0  62420-4 0  9991
2 63180  97.9568  80.8755 0008825 238.1534 121.8816 14.74428558 81213

Suivez PUNCH-WFI03 en temps réel avec AllMySat

Download on the App Store